Location: Tierra Monte Subdivision
(35.2092°N, 106.4864°W)
Time: 19:12:08
(UTC+00:00)

Cosmos 2315 Rocket - Pass Details

Date: 30 March 2020
Orbit: 965 x 1003 km, 82.9° (Epoch: 31 May)

Event Time Altitude Azimuth Distance (km) Brightness Sun altitude
Rises 02:32:38 0° 178° (S) 3,667 6.8 -14.3°
Reaches altitude 10° 02:35:08 10° 176° (S) 2,728 6.1 -14.8°
Maximum altitude 02:41:21 71° 93° (E) 1,043 3.9 -16.0°
Drops below altitude 10° 02:47:40 10° 11° (N) 2,768 6.5 -17.2°
Sets 02:50:13 0° 9° (N) 3,725 7.2 -17.7°
